Location: Unspecified
(0.0000°N, 0.0000°E)
Time: 03:41:20
(UTC+00:00)

SKYMED 3 - Visible Passes

Search period start: 28 June 2017 00:00
Search period end: 08 July 2017 00:00
Orbit: 621 x 623 km, 97.9° (Epoch: 26 June)

Date Brightness Start Highest point End Pass type
(mag) Time Alt. Az. Time Alt. Az. Time Alt. Az.
28 Jun 7.9 04:45:03 10° ESE 04:47:06 13° ENE 04:49:08 10° NE visible
28 Jun 7.7 18:28:52 10° NNW 18:31:54 19° WNW 18:34:58 10° WSW visible
29 Jun 7.2 05:01:37 10° SE 05:05:04 23° ENE 05:08:31 10° NNE visible
29 Jun 8.4 18:49:16 10° WNW 18:49:53 10° WNW 18:50:30 10° W visible
30 Jun 6.0 05:18:57 10° SSE 05:23:03 42° ENE 05:27:08 10° N visible
01 Jul 4.8 05:36:42 10° SSE 05:41:03 79° ENE 05:45:21 10° N visible
03 Jul 8.1 04:40:10 10° E 04:41:06 11° ENE 04:42:04 10° ENE visible
04 Jul 7.5 04:55:58 10° SE 04:59:06 19° ENE 05:02:11 10° NNE visible
04 Jul 8.0 18:41:59 10° NW 18:43:54 13° WNW 18:45:50 10° WSW visible
05 Jul 6.5 05:13:08 10° SE 05:17:04 34° ENE 05:20:59 10° NNE visible
06 Jul 5.1 05:30:45 10° SSE 05:35:03 64° ENE 05:39:20 10° N visible
